Home   Weather   Porta Westfalica   Past weeks

Flag for Germany Past Weather in Porta Westfalica, North Rhine-Westphalia, Germany — Yesterday and Last 2 Weeks

Now
39 °F

Chilly.


Feels Like: 35 °F
Forecast: 35 / 59 °F
Wind: 6 mph from South

Location: Bueckeburg

Current Time: Apr 30, 2017 at 1:51:01 am

Latest Report: Apr 30, 2017 at 1:20 am


Visibility: N/A

Pressure: 30.07 "Hg

Humidity: 70%

Dew Point: 30 °F

Location of Porta WestfalicaLocation

Past Weather in Porta Westfalica — Graph

°F

Porta Westfalica Temperature Yesterday

Maximum temperature yesterday: 54 °F (at 5:20 pm)
Minimum temperature yesterday: 39 °F (at 5:20 am)
Average temperature yesterday: 46 °F

High & Low Weather Summary for the Past Weeks

 TemperatureHumidityPressure
High57 °F (Apr 21, 1:20 pm)94% (Apr 15, 10:20 am)30.63 "Hg (Apr 15, 10:20 am)
Low27 °F (Apr 19, 6:20 am)35% (Apr 20, 5:20 pm)29.62 "Hg (Apr 25, 4:41 am)
Average43 °F71%30.10 "Hg
* Reported Apr 15 12:20 am — Apr 30 12:20 am, Porta Westfalica, Weather by CustomWeather, © 2017

Note: Actual official high and low records may vary slightly from our data, if they occured in-between our weather recording intervals... More about our weather records

Advertising

Porta Westfalica Weather History for the Previous 24 Hours

Scroll right to see more
 ConditionsComfort  
Time TempWeatherWind HumidityBarometerVisibility
12:20 am
Sun, Apr 30
43 °FQuite cool.2 mph61%30.07 "HgN/A
11:20 pm
Sat, Apr 29
41 °FQuite cool.2 mph70%30.07 "HgN/A
10:20 pm43 °FQuite cool.5 mph66%30.07 "HgN/A
9:20 pm48 °FCool.2 mph54%30.07 "HgN/A
8:20 pm52 °FCool.3 mph41%30.07 "HgN/A
7:20 pm54 °FCool.7 mph38%30.04 "HgN/A
6:20 pm54 °FCool.8 mph38%30.04 "Hg6 mi
5:20 pm54 °FCool.8 mph38%30.04 "Hg6 mi
4:20 pm52 °FCool.5 mph41%30.07 "HgN/A
3:20 pm52 °FCool.6 mph44%30.07 "HgN/A
2:20 pm50 °FCool.10 mph43%30.07 "HgN/A
1:20 pm52 °FCool.10 mph44%30.04 "HgN/A
12:20 pm50 °FCool.12 mph47%30.04 "HgN/A
11:20 am48 °FCool.13 mph50%30.04 "HgN/A
10:20 am46 °FCool.12 mph62%30.04 "HgN/A
9:20 am45 °FQuite cool.13 mph71%30.04 "HgN/A
8:20 am43 °FQuite cool.8 mph81%30.04 "HgN/A
7:20 am41 °FQuite cool.6 mph87%30.04 "HgN/A
6:20 am39 °FChilly.6 mph93%30.01 "HgN/A
5:20 am39 °FChilly.5 mph93%30.01 "HgN/A
4:20 am41 °FQuite cool.6 mph87%30.01 "HgN/A
3:20 am41 °FQuite cool.5 mph93%29.98 "HgN/A
2:20 am43 °FQuite cool.5 mph93%29.98 "Hg6 mi
1:20 am41 °FQuite cool.5 mph93%29.98 "HgN/A
Weather by CustomWeather, © 2017

See weather overviewHow to use our weather pages